Погода в Хуртэе

Россия / Республика Бурятия     51°56′35″N   110°49′34″E
темп.,
°C
ветер,
м/с
пор.,
м/с
влажн.,
%
обл.,
%
осадки,
мм/ч
давл.,
гПа
погр.,
м
11 мая, вт
вт1123:00+2з1599100 1.1 1010609
02:00+2с2496100 2.1 1011504
05:00+1зсз129974 0.1 1011108
08:00+3зсз2387100 0.2 1012442
11:00+9зсз455846 0.2 10091334
14:00+11сз464299 1.5 10072212
17:00+11сз663813 0.1 10082076
20:00+6сз49580 0.1 1010322
12 мая, ср
ср1223:00+2з24711 0.0 101274
02:000зюз22850 0.0 101321
05:00−1юз22940 0.0 101324
08:00+6зюз36665 0.0 1010521
11:00+11зсз684378 0.2 10072151
14:00+12з81040100 0.4 10062678
17:00+11зсз7123912 0.4 10062379
20:00+5сз495013 0.4 1009372
13 мая, чт
чт1323:00+1зсз22712 0.0 101217
02:00−1зюз268076 0.0 1013113
05:00−2зюз26814 0.0 1013132
08:00+4зсз68444 0.0 10111253
11:00+7зсз6827100 0.0 10092918
14:00+7зсз6726100 0.0 10083003
17:00+7зсз6729100 0.0 10092559
20:00+3зсз510505 0.1 1011563
14 мая, пт
пт1423:000зсз39664 0.0 1013386
02:00−2юз228820 0.0 101540
05:00−3юз11955 0.0 101617
08:00+3з34625 0.0 1016611
11:00+9зсз453812 0.0 10131724
14:00+13зсз46275 0.0 10102455
17:00+14сз46225 0.0 10092845
20:00+7с22401 0.0 101223
15 мая, сб
сб1523:00+3ююз11520 0.0 101510
02:00+1ююз11620 0.0 101610
05:00−1ююз11680 0.0 101710
08:00+7юз12385 0.0 1015350
11:00+14з462530 0.0 10121294
14:00+17зсз57185 0.0 10092491
17:00+17з57195 0.0 10082853
20:00+12з49375 0.0 1010220